Date,TemperatureHighF,TemperatureAvgF,TemperatureLowF,DewpointHighF,DewpointAvgF,DewpointLowF,HumidityHigh,HumidityAvg,HumidityLow,PressureMaxIn,PressureMinIn,WindSpeedMaxMPH,WindSpeedAvgMPH,GustSpeedMaxMPH,PrecipitationSumIn
2013-6-1,82.3,71.3,62.0,66.7,61.0,57.6,89,71,51,30.03,29.87,14,3,15,0.00
2013-6-2,70.5,65.9,61.2,64.1,61.4,58.2,98,86,75,29.89,29.81,16,3,16,0.77
2013-6-3,68.7,62.3,54.3,62.9,59.4,53.8,100,91,69,29.98,29.82,10,1,11,0.00
2013-6-4,73.7,62.2,53.0,59.6,55.4,52.7,100,80,53,30.06,29.97,10,1,10,0.00
2013-6-5,74.7,64.3,56.7,64.5,59.8,54.1,97,86,66,30.06,29.91,22,6,22,0.00
2013-6-6,68.4,63.0,59.7,65.3,61.3,57.2,99,94,87,29.95,29.74,17,5,18,0.04
2013-6-7,65.3,61.5,56.7,65.3,61.3,56.4,100,99,97,29.82,29.65,13,2,13,0.20
2013-6-8,73.8,63.2,55.0,60.3,55.8,50.5,100,80,50,30.07,29.82,10,1,11,0.02
2013-6-9,78.6,67.3,55.3,63.9,59.7,54.4,99,79,49,30.12,29.98,17,2,21,0.04
2013-6-10,71.3,64.6,59.7,67.0,62.4,58.4,100,93,75,29.98,29.80,18,4,18,0.48
2013-6-11,72.0,66.4,59.7,64.8,62.8,59.1,98,88,75,29.95,29.90,14,3,15,0.27
2013-6-12,81.8,70.7,62.7,72.1,66.4,60.8,99,87,66,29.96,29.81,18,2,18,0.08
2013-6-13,73.5,69.4,62.6,69.9,66.6,61.3,98,91,84,29.82,29.57,28,6,28,0.60
2013-6-14,68.8,61.5,52.9,57.5,55.1,52.1,97,80,61,30.05,29.83,13,2,13,0.01
2013-6-15,73.8,61.6,49.1,59.7,54.3,49.0,100,79,51,30.14,30.03,13,2,13,0.01
2013-6-16,74.3,66.3,54.2,65.0,61.1,53.2,98,84,67,30.06,29.96,17,2,18,0.46
2013-6-17,78.2,68.6,60.8,67.0,63.4,59.2,99,84,65,29.99,29.87,9,1,12,0.02
2013-6-18,68.0,62.2,57.0,63.8,61.0,56.7,100,96,82,29.93,29.80,10,1,12,1.43
2013-6-19,75.0,64.9,55.9,64.7,60.2,55.6,100,87,57,30.09,29.91,11,1,11,0.01
2013-6-20,74.5,67.4,57.8,64.8,62.8,57.2,99,86,67,30.18,30.09,7,1,11,0.00
2013-6-21,79.8,69.2,59.7,66.5,61.8,55.9,99,79,48,30.20,30.12,12,3,12,0.00
2013-6-22,79.4,68.8,58.3,64.1,59.7,55.0,96,74,54,30.20,30.07,14,2,14,0.00
2013-6-23,82.5,76.3,65.9,64.9,62.0,56.4,92,63,43,30.15,30.06,9,1,9,0.00
2013-6-24,82.0,70.9,61.1,68.8,63.9,60.0,98,80,55,30.14,30.01,13,1,14,0.00
2013-6-25,80.0,69.3,62.0,71.2,66.1,61.7,100,90,65,30.07,29.93,14,1,14,0.48
2013-6-26,77.8,70.0,64.1,71.0,66.7,62.8,99,90,73,29.96,29.82,13,2,13,0.04
2013-6-27,68.7,66.1,61.6,68.2,64.9,61.0,100,96,88,29.83,29.67,17,3,17,0.37
2013-6-28,77.6,70.6,65.9,68.3,64.9,59.6,100,83,59,29.72,29.53,20,4,20,0.00
2013-6-29,77.3,67.2,57.4,63.7,60.3,57.1,100,80,54,29.66,29.54,9,2,16,0.03
2013-6-30,78.6,67.8,56.6,66.4,61.2,56.3,100,81,54,29.77,29.66,11,2,17,0.00